SCP
0 0 0 0 0 0 0 0 0 0 0 0 0 0 0 0 0 0 0 0 0 0 0 0 0 0 0 0 0 0 0 0 0 0 0 0 0 0 0 0 0 0 0 0
0 0 0 0 0 0 0 0 0 0 0 0 0 0 0 0 0 0 0 0 0 0 0 0 0 0 0 0 0 0 0 0 0 0 0 0 0 0 0 0 0 0 0 0
0 0 0 0 0 0 0 0 0 0 0 0 0 0 0 0 0 0 0 0 0 0 0 0 0 0 0 0 0 0 0 0 0 0 0 0 0 0 0 0 0 0 0 -0
0 0 0 0 0 0 0 0 0 0 0 0 0 0 -0 0 0 0 0 0 0 0 0 0 0 0 0 0 0 0 0 0 0 0 0 0 0 0 0 0 -0 -0 0 -0
0 0 0 0 0 0 0 0 0 0 0 0 0 0 0 0 0 0 0 0 0 0 0 0 0 0 0 0 0 0 0 0 0 0 0 0 0 0 0 -0 -0 -0 0 -0
0 0 0 0 0 0 0 0 0 0 0 0 0 0 0 0 0 0 0 0 0 0 0 0 0 0 0 0 0 0 0 0 0 0 0 0 0 0 0 -0 -0 0 0 0
0 0 0 0 0 0 0 0 0 0 0 0 0 0 0 0 0 0 0 0 0 0 0 0 0 0 0 0 0 0 0 0 0 0 0 0 0 0 0 0 -0 -0 0 0
0 0 0 0 0 0 0 0 0 0 0 0 0 0 0 0 0 0 -0 0 0 0 0 0 0 0 0 0 0 0 0 0 0 0 0 0 0 0 0 0 0 -0 0 0
0 0 0 0 0 0 0 0 0 0 0 0 0 0 0 0 0 0 0 0 0 0 0 0 0 0 0 0 0 0 0 0 0 0 0 0 0 0 0 0 0 0 0 0
0 0 0 0 0 0 0 0 0 0 0 0 0 0 0 0 0 0 0 0 0 0 0 0 0 0 0 0 0 0 0 0 0 0 0 0 0 0 0 0 0 0 0 0
0 0 0 0 0 0 0 0 0 0 0 0 0 0 0 0 0 0 0 -0 -0 0 0 0 0 0 0 0 0 0 0 0 0 0 0 0 0 0 0 0 0 0 0 0
0 0 0 0 0 0 0 0 0 0 0 0 0 0 0 0 0 0 0 0 -0 -0 0 0 0 0 0 0 0 0 0 0 0 0 0 0 -0 0 0 0 0 0 0 0
0 0 0 0 0 0 0 0 0 0 0 0 0 0 0 0 0 0 0 0 0 -0 0 0 0 0 0 0 0 0 0 0 0 0 0 0 0 0 0 0 0 -0 0 0
0 0 0 0 0 0 0 0 0 0 0 0 0 0 0 -0 0 0 0 0 0 0 0 0 0 0 0 0 0 0 0 0 0 0 0 0 0 0 0 -0 -0 0 -0 0
0 0 0 0 0 0 0 0 0 0 0 0 0 0 0 0 -0 -0 0 0 0 0 0 0 0 0 0 0 0 0 0 0 0 0 0 0 0 0 -0 0 0 0 -0 -0
0 0 0 0 0 0 0 0 0 0 0 0 0 0 0 0 0 0 0 0 0 0 0 0 0 0 0 0 0 0 0 0 0 0 -0 0 0 -0 -0 -0 0 0 -0 -0
0 0 0 0 0 0 0 0 0 0 0 0 0 0 0 0 0 0 0 0 0 0 0 0 0 0 0 0 0 0 0 0 0 0 0 0 0 -0 -0 -0 -0 -0 0 -0
0 0 0 0 0 0 0 0 0 0 0 0 0 0 0 0 0 -0 -0 0 0 0 0 0 0 0 0 0 0 0 0 0 0 0 0 0 0 -0 -0 -0 -0 -0 0 0
0 0 0 0 0 0 0 0 0 0 0 0 0 0 0 0 0 0 0 0 0 0 0 0 0 0 0 0 0 0 0 0 0 0 0 0 0 0 -0 0 0 0 -0 -0
0 0 0 0 0 0 0 0 0 0 0 0 0 0 0 0 0 0 0 0 0 0 0 0 0 0 0 0 0 0 0 0 0 0 0 0 0 0 0 -0 -0 -0 0 0
0 0 0 0 0 0 0 0 0 0 0 0 0 0 0 0 0 0 0 0 0 0 0 0 0 0 0 0 0 0 0 0 0 0 0 0 0 0 0 0 0 0 -0 -0
0 0 0 0 0 0 0 0 0 0 0 0 -0 -0 -0 -0 0 0 0 0 0 0 0 0 0 0 0 0 0 0 0 0 0 0 0 0 0 0 0 0 0 0 0 0
0 0 0 0 0 0 0 0 0 0 0 0 0 0 -0 -0 -0 0 0 0 0 0 -0 -0 -0 0 0 0 0 0 0 0 0 0 0 0 0 0 0 0 0 0 0 0
0 0 0 0 0 0 0 0 0 -0 -0 0 0 0 -0 0 0 0 -0 -0 -0 -0 -0 -0 0 0 0 0 0 0 0 0 0 0 0 0 0 0 0 0 0 0 0 0
0 0 0 0 0 0 0 0 0 0 0 0 0 0 -0 -0 0 -0 0 0 -0 -0 -0 -0 0 0 0 0 0 0 0 0 0 0 0 0 0 0 0 0 0 0 0 0
0 0 0 0 0 0 0 0 0 0 0 0 0 0 0 0 0 -0 0 -0 -0 -0 -0 -0 -0 0 0 0 0 0 0 0 0 0 0 0 0 0 0 0 0 0 0 0
Wind_Speed_500mb
3 4 15 19 11 4 8 3 8 7 2 5 14 25 38 36 27 34 32 20 21 36 31 26 27 30 29 26 23 21 20 22 22 24 26 25 22 22 20 14 13 10 9 5
8 14 7 6 8 8 2 5 12 10 2 3 10 39 34 11 9 8 8 4 4 21 28 30 33 32 28 23 21 19 19 18 21 24 23 22 18 15 13 12 9 10 11 6
12 3 6 11 7 8 6 9 7 10 11 3 14 17 10 4 7 7 6 4 6 13 27 34 37 34 30 24 18 18 18 16 20 22 21 17 14 10 9 9 7 7 9 13
10 5 8 8 8 12 5 7 4 2 6 7 8 10 11 8 16 9 13 10 9 16 26 34 36 34 27 21 20 17 16 15 20 20 17 13 10 7 5 5 8 11 13 12
10 7 6 5 5 12 7 3 4 4 6 5 2 5 17 7 11 9 14 23 16 18 24 31 32 27 23 22 18 18 16 15 19 17 13 9 7 3 1 5 6 9 13 11
1 1 2 3 4 4 13 8 12 8 5 4 3 9 15 8 10 4 4 25 23 26 28 29 28 28 24 23 20 17 16 15 16 13 9 6 3 2 1 5 7 9 11 7
2 4 2 5 8 8 7 9 5 9 6 11 7 3 20 11 12 8 6 24 30 29 32 31 30 27 24 22 20 19 14 15 12 11 5 1 1 2 4 1 4 9 8 4
11 8 13 5 3 9 10 10 10 12 5 6 5 12 13 11 6 16 21 16 30 34 33 30 25 22 21 21 21 21 12 14 11 9 5 5 4 5 6 3 4 10 9 7
8 7 6 7 3 3 9 7 5 12 3 6 7 15 20 10 17 10 13 19 38 40 36 31 26 23 23 22 19 18 12 14 9 8 8 9 7 7 4 2 5 6 9 10
8 3 5 6 1 5 3 3 6 5 3 7 8 10 12 11 8 13 13 22 33 37 38 35 31 26 24 22 20 17 15 14 9 10 11 12 10 7 5 4 4 5 8 9
8 7 5 2 9 13 5 2 4 3 6 9 2 11 12 10 11 12 14 24 31 39 41 39 34 29 26 24 22 17 17 15 9 11 12 13 12 6 6 6 6 5 5 6
13 8 6 10 3 4 2 7 10 6 9 3 5 12 2 7 10 12 15 16 22 29 34 35 35 33 32 27 23 19 18 16 10 13 16 16 15 10 8 5 5 3 5 8
13 4 4 12 5 5 6 7 5 8 5 11 8 11 5 5 9 19 20 22 19 24 32 37 40 41 36 31 25 22 19 18 12 15 19 20 17 13 10 6 5 3 3 5
9 5 10 11 7 8 5 7 8 4 6 7 13 10 27 34 16 21 24 28 24 16 29 36 42 44 39 35 28 26 22 21 15 17 23 23 18 15 6 6 8 9 11 13
8 7 5 6 5 6 9 9 12 14 17 9 7 14 17 27 13 16 42 47 39 32 26 40 44 46 44 41 36 30 26 25 18 22 27 24 17 8 6 11 10 15 22 29
6 3 5 7 5 6 11 15 16 16 9 20 16 42 27 36 55 52 74 64 58 58 43 37 41 46 49 46 41 33 30 28 24 28 31 25 19 17 17 18 18 27 35 36
5 9 5 7 3 8 17 18 31 13 13 14 20 37 13 26 26 34 53 53 51 47 46 42 41 44 46 47 43 38 32 33 30 35 36 30 27 22 23 23 31 26 31 32
6 8 5 5 5 4 12 5 11 21 14 21 28 28 19 35 42 35 35 51 60 60 61 57 56 48 43 45 46 42 39 38 36 40 41 36 36 26 28 30 37 28 29 28
9 6 3 7 6 12 19 3 11 13 1 8 23 33 31 28 33 19 39 42 44 45 44 47 44 42 44 49 50 49 48 45 44 47 46 43 39 33 32 37 34 29 28 25
16 5 6 5 9 14 11 4 5 3 3 11 6 12 9 7 8 7 48 48 58 50 38 35 29 38 42 45 55 56 57 53 52 54 49 48 45 38 40 38 34 25 27 31
15 8 22 15 9 12 15 16 7 7 9 6 20 15 15 6 9 40 48 46 49 57 48 35 28 31 38 44 56 62 63 61 51 58 56 52 50 47 41 40 42 38 37 42
19 16 10 9 12 22 14 1 8 1 7 9 16 21 22 26 35 44 47 52 51 56 59 44 37 30 34 41 55 66 68 58 57 65 63 58 55 53 49 45 48 43 44 40
6 12 10 15 11 9 7 8 12 12 8 16 22 30 30 33 38 43 49 51 52 54 60 52 40 34 32 41 52 65 65 63 65 71 70 63 60 57 53 53 53 50 47 44
6 6 6 7 9 12 9 8 16 22 23 22 33 38 42 42 41 44 46 54 55 46 49 59 43 35 31 34 48 60 64 67 69 75 74 70 67 63 59 55 53 54 47 40
10 14 11 6 7 14 23 7 7 13 12 11 20 34 40 45 47 48 48 48 50 50 44 43 49 38 28 27 42 57 65 70 73 78 78 76 71 67 65 61 59 54 48 39
9 11 8 8 12 10 9 5 11 8 9 20 34 44 45 49 47 51 47 44 50 49 49 39 40 40 35 25 34 49 63 71 76 82 83 81 76 71 71 71 67 57 44 39
Wind_Direction_500mb
107 121 211 202 197 61 108 204 282 276 288 279 241 277 284 293 255 272 285 292 257 234 227 220 214 211 215 218 234 249 266 278 296 311 314 317 316 321 324 353 344 360 343 318
57 238 198 155 170 216 234 307 278 273 284 245 335 292 276 279 248 240 302 347 208 203 201 204 202 205 208 220 233 253 268 286 308 313 320 318 324 328 329 14 354 352 345 350
166 202 72 152 145 156 211 200 219 239 319 236 323 293 319 275 276 258 248 251 209 195 192 195 197 201 205 216 238 251 265 294 310 319 319 323 330 332 6 40 0 36 45 90
242 286 162 165 193 146 249 224 212 99 37 266 14 289 295 322 301 246 233 222 209 187 186 194 194 201 207 219 237 249 270 305 314 317 320 325 335 343 17 50 54 34 70 80
234 161 162 154 199 169 227 41 108 88 111 1 338 105 272 351 299 262 222 214 200 184 180 184 191 199 204 225 235 253 278 308 306 314 325 329 333 26 285 71 42 42 60 70
256 329 104 134 70 47 143 76 39 45 73 32 234 148 283 238 216 243 218 208 196 181 175 179 185 199 217 226 236 253 277 295 301 316 318 330 325 81 269 111 98 74 59 72
309 197 134 148 88 33 78 76 325 351 8 215 14 83 247 267 244 221 203 206 197 189 186 188 198 207 219 232 244 253 269 282 303 307 294 257 158 155 200 170 148 134 100 86
161 282 174 159 174 172 179 162 165 214 207 256 36 233 251 223 276 260 243 222 204 199 198 201 202 205 213 223 244 252 260 280 300 292 257 205 166 208 213 209 222 164 162 146
134 277 331 54 41 84 193 187 160 101 51 46 220 282 292 247 268 271 242 210 199 200 202 198 202 203 209 221 238 253 256 274 293 271 234 207 181 220 203 174 227 158 155 176
190 20 353 330 164 44 160 147 78 355 190 256 288 284 241 296 323 246 249 217 200 200 205 205 206 206 213 223 231 246 247 262 276 254 220 194 180 225 217 180 209 173 176 195
134 128 330 331 219 178 141 244 69 148 158 177 191 258 218 280 303 270 259 243 211 205 205 208 205 207 214 226 234 239 244 249 259 240 202 185 167 205 227 221 237 208 201 217
184 124 164 199 280 331 9 187 168 140 250 262 144 273 220 291 341 6 322 296 255 231 223 218 219 217 223 228 234 236 239 238 243 228 188 185 175 187 226 209 252 281 211 209
180 215 57 347 8 360 218 201 197 105 82 204 153 258 203 13 47 25 359 344 307 245 228 222 222 225 226 228 235 235 234 230 226 215 184 186 179 199 210 189 199 214 226 179
127 107 158 183 167 141 177 221 197 154 132 190 224 275 305 299 325 333 340 341 328 292 237 231 229 230 230 230 235 238 228 226 213 202 186 182 189 198 198 151 157 163 175 130
133 191 140 265 217 189 213 198 172 185 224 224 243 225 251 276 326 304 307 312 321 308 264 239 237 235 231 229 230 234 224 228 205 191 190 179 192 166 153 160 139 132 142 128
26 159 96 324 355 228 254 226 211 212 214 247 266 268 247 282 285 280 283 291 293 291 290 263 250 240 235 233 232 233 226 225 204 187 191 183 168 168 155 152 151 130 136 136
119 134 88 278 8 338 299 213 215 195 201 199 214 251 266 276 260 254 284 299 298 301 293 286 265 256 241 234 232 231 225 216 208 188 189 185 174 173 161 161 152 148 144 144
142 129 120 205 86 225 247 209 190 211 253 228 265 271 240 244 281 323 311 295 296 301 298 289 281 263 253 235 228 223 218 212 209 192 189 184 175 181 170 164 166 163 159 159
162 123 139 155 212 299 305 208 174 166 260 235 248 270 280 291 296 322 10 351 331 320 321 299 283 270 264 241 227 220 216 209 206 196 192 178 172 180 176 168 168 173 171 167
176 131 150 153 176 212 241 256 233 191 53 343 1 315 337 8 29 290 350 342 347 337 317 323 285 266 255 234 224 218 216 210 204 197 192 174 175 173 175 170 169 170 171 171
187 185 210 206 227 284 258 268 276 73 213 24 17 22 38 43 316 324 343 352 354 351 332 312 305 274 262 242 223 218 215 213 203 195 191 179 179 179 176 170 174 165 161 161
174 171 191 206 227 244 246 295 194 153 16 323 0 10 6 5 3 0 358 359 357 357 353 330 312 288 261 240 225 220 217 209 199 194 192 183 183 180 177 171 168 177 176 171
224 182 179 182 204 232 187 118 7 11 358 25 22 24 15 19 16 6 359 2 4 5 1 349 330 309 268 244 230 223 217 206 199 195 191 185 186 186 186 182 181 174 171 172
259 181 173 91 232 240 269 87 71 68 75 70 34 21 15 3 357 350 350 352 353 349 349 353 339 320 291 258 236 224 217 205 201 197 190 188 189 189 187 183 185 179 173 175
193 146 168 279 295 279 287 158 49 102 87 17 2 2 359 358 354 348 343 341 338 341 337 339 344 324 299 272 244 226 213 208 202 198 190 191 191 192 191 184 177 181 173 180
197 175 168 214 209 191 246 240 2 306 314 346 345 338 337 340 335 340 334 328 326 327 325 327 336 329 300 278 246 231 216 209 206 199 193 193 192 189 189 181 176 178 181 171
Wind_Speed_850mb
3 4 15 19 11 4 8 3 8 7 2 5 14 25 38 36 27 34 32 20 21 36 31 26 27 30 29 26 23 21 20 22 22 24 26 25 22 22 20 14 13 10 9 5
8 14 7 6 8 8 2 5 12 10 2 3 10 39 34 11 9 8 8 4 4 21 28 30 33 32 28 23 21 19 19 18 21 24 23 22 18 15 13 12 9 10 11 6
12 3 6 11 7 8 6 9 7 10 11 3 14 17 10 4 7 7 6 4 6 13 27 34 37 34 30 24 18 18 18 16 20 22 21 17 14 10 9 9 7 7 9 13
10 5 8 8 8 12 5 7 4 2 6 7 8 10 11 8 16 9 13 10 9 16 26 34 36 34 27 21 20 17 16 15 20 20 17 13 10 7 5 5 8 11 13 12
10 7 6 5 5 12 7 3 4 4 6 5 2 5 17 7 11 9 14 23 16 18 24 31 32 27 23 22 18 18 16 15 19 17 13 9 7 3 1 5 6 9 13 11
1 1 2 3 4 4 13 8 12 8 5 4 3 9 15 8 10 4 4 25 23 26 28 29 28 28 24 23 20 17 16 15 16 13 9 6 3 2 1 5 7 9 11 7
2 4 2 5 8 8 7 9 5 9 6 11 7 3 20 11 12 8 6 24 30 29 32 31 30 27 24 22 20 19 14 15 12 11 5 1 1 2 4 1 4 9 8 4
11 8 13 5 3 9 10 10 10 12 5 6 5 12 13 11 6 16 21 16 30 34 33 30 25 22 21 21 21 21 12 14 11 9 5 5 4 5 6 3 4 10 9 7
8 7 6 7 3 3 9 7 5 12 3 6 7 15 20 10 17 10 13 19 38 40 36 31 26 23 23 22 19 18 12 14 9 8 8 9 7 7 4 2 5 6 9 10
8 3 5 6 1 5 3 3 6 5 3 7 8 10 12 11 8 13 13 22 33 37 38 35 31 26 24 22 20 17 15 14 9 10 11 12 10 7 5 4 4 5 8 9
8 7 5 2 9 13 5 2 4 3 6 9 2 11 12 10 11 12 14 24 31 39 41 39 34 29 26 24 22 17 17 15 9 11 12 13 12 6 6 6 6 5 5 6
13 8 6 10 3 4 2 7 10 6 9 3 5 12 2 7 10 12 15 16 22 29 34 35 35 33 32 27 23 19 18 16 10 13 16 16 15 10 8 5 5 3 5 8
13 4 4 12 5 5 6 7 5 8 5 11 8 11 5 5 9 19 20 22 19 24 32 37 40 41 36 31 25 22 19 18 12 15 19 20 17 13 10 6 5 3 3 5
9 5 10 11 7 8 5 7 8 4 6 7 13 10 27 34 16 21 24 28 24 16 29 36 42 44 39 35 28 26 22 21 15 17 23 23 18 15 6 6 8 9 11 13
8 7 5 6 5 6 9 9 12 14 17 9 7 14 17 27 13 16 42 47 39 32 26 40 44 46 44 41 36 30 26 25 18 22 27 24 17 8 6 11 10 15 22 29
6 3 5 7 5 6 11 15 16 16 9 20 16 42 27 36 55 52 74 64 58 58 43 37 41 46 49 46 41 33 30 28 24 28 31 25 19 17 17 18 18 27 35 36
5 9 5 7 3 8 17 18 31 13 13 14 20 37 13 26 26 34 53 53 51 47 46 42 41 44 46 47 43 38 32 33 30 35 36 30 27 22 23 23 31 26 31 32
6 8 5 5 5 4 12 5 11 21 14 21 28 28 19 35 42 35 35 51 60 60 61 57 56 48 43 45 46 42 39 38 36 40 41 36 36 26 28 30 37 28 29 28
9 6 3 7 6 12 19 3 11 13 1 8 23 33 31 28 33 19 39 42 44 45 44 47 44 42 44 49 50 49 48 45 44 47 46 43 39 33 32 37 34 29 28 25
16 5 6 5 9 14 11 4 5 3 3 11 6 12 9 7 8 7 48 48 58 50 38 35 29 38 42 45 55 56 57 53 52 54 49 48 45 38 40 38 34 25 27 31
15 8 22 15 9 12 15 16 7 7 9 6 20 15 15 6 9 40 48 46 49 57 48 35 28 31 38 44 56 62 63 61 51 58 56 52 50 47 41 40 42 38 37 42
19 16 10 9 12 22 14 1 8 1 7 9 16 21 22 26 35 44 47 52 51 56 59 44 37 30 34 41 55 66 68 58 57 65 63 58 55 53 49 45 48 43 44 40
6 12 10 15 11 9 7 8 12 12 8 16 22 30 30 33 38 43 49 51 52 54 60 52 40 34 32 41 52 65 65 63 65 71 70 63 60 57 53 53 53 50 47 44
6 6 6 7 9 12 9 8 16 22 23 22 33 38 42 42 41 44 46 54 55 46 49 59 43 35 31 34 48 60 64 67 69 75 74 70 67 63 59 55 53 54 47 40
10 14 11 6 7 14 23 7 7 13 12 11 20 34 40 45 47 48 48 48 50 50 44 43 49 38 28 27 42 57 65 70 73 78 78 76 71 67 65 61 59 54 48 39
9 11 8 8 12 10 9 5 11 8 9 20 34 44 45 49 47 51 47 44 50 49 49 39 40 40 35 25 34 49 63 71 76 82 83 81 76 71 71 71 67 57 44 39
Wind_Direction_850mb
107 121 211 202 197 61 108 204 282 276 288 279 241 277 284 293 255 272 285 292 257 234 227 220 214 211 215 218 234 249 266 278 296 311 314 317 316 321 324 353 344 360 343 318
57 238 198 155 170 216 234 307 278 273 284 245 335 292 276 279 248 240 302 347 208 203 201 204 202 205 208 220 233 253 268 286 308 313 320 318 324 328 329 14 354 352 345 350
166 202 72 152 145 156 211 200 219 239 319 236 323 293 319 275 276 258 248 251 209 195 192 195 197 201 205 216 238 251 265 294 310 319 319 323 330 332 6 40 0 36 45 90
242 286 162 165 193 146 249 224 212 99 37 266 14 289 295 322 301 246 233 222 209 187 186 194 194 201 207 219 237 249 270 305 314 317 320 325 335 343 17 50 54 34 70 80
234 161 162 154 199 169 227 41 108 88 111 1 338 105 272 351 299 262 222 214 200 184 180 184 191 199 204 225 235 253 278 308 306 314 325 329 333 26 285 71 42 42 60 70
256 329 104 134 70 47 143 76 39 45 73 32 234 148 283 238 216 243 218 208 196 181 175 179 185 199 217 226 236 253 277 295 301 316 318 330 325 81 269 111 98 74 59 72
309 197 134 148 88 33 78 76 325 351 8 215 14 83 247 267 244 221 203 206 197 189 186 188 198 207 219 232 244 253 269 282 303 307 294 257 158 155 200 170 148 134 100 86
161 282 174 159 174 172 179 162 165 214 207 256 36 233 251 223 276 260 243 222 204 199 198 201 202 205 213 223 244 252 260 280 300 292 257 205 166 208 213 209 222 164 162 146
134 277 331 54 41 84 193 187 160 101 51 46 220 282 292 247 268 271 242 210 199 200 202 198 202 203 209 221 238 253 256 274 293 271 234 207 181 220 203 174 227 158 155 176
190 20 353 330 164 44 160 147 78 355 190 256 288 284 241 296 323 246 249 217 200 200 205 205 206 206 213 223 231 246 247 262 276 254 220 194 180 225 217 180 209 173 176 195
134 128 330 331 219 178 141 244 69 148 158 177 191 258 218 280 303 270 259 243 211 205 205 208 205 207 214 226 234 239 244 249 259 240 202 185 167 205 227 221 237 208 201 217
184 124 164 199 280 331 9 187 168 140 250 262 144 273 220 291 341 6 322 296 255 231 223 218 219 217 223 228 234 236 239 238 243 228 188 185 175 187 226 209 252 281 211 209
180 215 57 347 8 360 218 201 197 105 82 204 153 258 203 13 47 25 359 344 307 245 228 222 222 225 226 228 235 235 234 230 226 215 184 186 179 199 210 189 199 214 226 179
127 107 158 183 167 141 177 221 197 154 132 190 224 275 305 299 325 333 340 341 328 292 237 231 229 230 230 230 235 238 228 226 213 202 186 182 189 198 198 151 157 163 175 130
133 191 140 265 217 189 213 198 172 185 224 224 243 225 251 276 326 304 307 312 321 308 264 239 237 235 231 229 230 234 224 228 205 191 190 179 192 166 153 160 139 132 142 128
26 159 96 324 355 228 254 226 211 212 214 247 266 268 247 282 285 280 283 291 293 291 290 263 250 240 235 233 232 233 226 225 204 187 191 183 168 168 155 152 151 130 136 136
119 134 88 278 8 338 299 213 215 195 201 199 214 251 266 276 260 254 284 299 298 301 293 286 265 256 241 234 232 231 225 216 208 188 189 185 174 173 161 161 152 148 144 144
142 129 120 205 86 225 247 209 190 211 253 228 265 271 240 244 281 323 311 295 296 301 298 289 281 263 253 235 228 223 218 212 209 192 189 184 175 181 170 164 166 163 159 159
162 123 139 155 212 299 305 208 174 166 260 235 248 270 280 291 296 322 10 351 331 320 321 299 283 270 264 241 227 220 216 209 206 196 192 178 172 180 176 168 168 173 171 167
176 131 150 153 176 212 241 256 233 191 53 343 1 315 337 8 29 290 350 342 347 337 317 323 285 266 255 234 224 218 216 210 204 197 192 174 175 173 175 170 169 170 171 171
187 185 210 206 227 284 258 268 276 73 213 24 17 22 38 43 316 324 343 352 354 351 332 312 305 274 262 242 223 218 215 213 203 195 191 179 179 179 176 170 174 165 161 161
174 171 191 206 227 244 246 295 194 153 16 323 0 10 6 5 3 0 358 359 357 357 353 330 312 288 261 240 225 220 217 209 199 194 192 183 183 180 177 171 168 177 176 171
224 182 179 182 204 232 187 118 7 11 358 25 22 24 15 19 16 6 359 2 4 5 1 349 330 309 268 244 230 223 217 206 199 195 191 185 186 186 186 182 181 174 171 172
259 181 173 91 232 240 269 87 71 68 75 70 34 21 15 3 357 350 350 352 353 349 349 353 339 320 291 258 236 224 217 205 201 197 190 188 189 189 187 183 185 179 173 175
193 146 168 279 295 279 287 158 49 102 87 17 2 2 359 358 354 348 343 341 338 341 337 339 344 324 299 272 244 226 213 208 202 198 190 191 191 192 191 184 177 181 173 180
197 175 168 214 209 191 246 240 2 306 314 346 345 338 337 340 335 340 334 328 326 327 325 327 336 329 300 278 246 231 216 209 206 199 193 193 192 189 189 181 176 178 181 171